Location: ??????????
(48.5701°N, 37.7703°E)
Time: 10:53:22
(UTC+00:00)

Cosmos 1833 Rocket - Pass Details

Date: 14 July 2020
Orbit: 832 x 840 km, 71.0° (Epoch: 10 August)

Event Time Altitude Azimuth Distance (km) Brightness Sun altitude
Exits shadow 00:44:59 - 239° (WSW) 2,548 4.6 -8.0°
Reaches altitude 10° 00:45:18 10° 241° (WSW) 2,439 4.5 -7.9°
Maximum altitude 00:50:29 38° 309° (NW) 1,256 3.6 -7.3°
Drops below altitude 10° 00:55:43 10° 17° (NNE) 2,456 6.2 -6.7°
Sets 00:58:21 0° 25° (NNE) 3,395 7.4 -6.4°
